Location: Kermapucano
(48.0667°N, 3.3000°W)
Time: 19:44:22
(UTC+00:00)

Meteor 1-27 Rocket - Pass Details

Date: 29 November 2020
Orbit: 830 x 909 km, 81.3° (Epoch: 27 January)

Event Time Altitude Azimuth Distance (km) Brightness Sun altitude
Rises 06:53:36 0° 343° (NNW) 3,469 6.5 -7.7°
Reaches altitude 10° 06:56:06 10° 338° (NNW) 2,539 5.8 -7.3°
Maximum altitude 07:01:36 48° 267° (W) 1,156 4.1 -6.5°
Drops below altitude 10° 07:07:11 10° 194° (SSW) 2,568 6.4 -5.6°
Sets 07:09:44 0° 189° (S) 3,512 7.2 -5.2°
